Epoch 2003 Mar. 22.0 TT = JDT 2452720.5
T 2003 Mar. 7.36981 TT MPCW
q 5.0098757 (2000.0) P Q
n 0.05686257 Peri. 355.16323 -0.75164633 +0.64983115
a 6.6975873 Node 226.03827 -0.59975785 -0.74462638
e 0.2519880 Incl. 9.02431 -0.27444182 -0.15248290
P 17.33
From 75 observations 2002 Apr. 5-2019 Mar. 10, mean residual 0".4.